Location: Black Swamp Observatory
(41.3920°N, 84.1250°W)
Time: 21:34:00
(UTC-05:00)

Vanguard 1 Rocket - Visible Passes

Search period start: 22 January 2022 00:00
Search period end: 01 February 2022 00:00
Orbit: 651 x 4224 km, 34.3° (Epoch: 22 January)

Date Brightness Start Highest point End Pass type
(mag) Time Alt. Az. Time Alt. Az. Time Alt. Az.
22 Jan 9.7 18:40:37 10° W 18:51:10 36° SSW 18:57:15 10° SSE visible
23 Jan 10.0 19:58:50 10° W 20:03:51 16° SW 20:07:40 10° SSW visible
24 Jan 9.9 18:43:08 10° W 18:53:24 30° SW 18:59:31 10° SSE visible
25 Jan 10.4 20:03:01 10° WSW 20:05:49 12° SW 20:08:15 10° SSW visible
26 Jan 10.1 18:45:48 10° W 18:55:28 25° SW 19:01:33 10° S visible
28 Jan 10.4 18:48:42 10° W 18:57:24 21° SW 19:03:15 10° S visible
30 Jan 10.8 18:52:05 10° W 18:59:11 16° SW 19:04:25 10° SSW visible
